CW2352 Weather Reports


Display with metric or nautical units.
time (UTC)temp
F
wind
direction
speed
MPH
gust
MPH
rain 1hr
in
rain 24hr
in
rain mn
in
humidity
%
barometer
mb
20260503033204 35 200 2.0 2.0 0.00 0.06 0.00 91 1019.8
20260503031703 34 299 1.0 2.0 0.00 0.07 0.00 92 1019.8
20260503031203 34 235 0.0 2.0 0.00 0.07 0.00 91 1020.0
20260503030704 34 258 1.0 2.0 0.00 0.07 0.00 90 1019.8
20260503030204 35 267 1.0 2.0 0.00 0.07 0.00 89 1019.6
20260503025704 35 275 0.0 2.0 0.00 0.08 0.00 87 1019.8
20260503025204 36 247 1.0 2.0 0.00 0.08 0.00 87 1019.6
20260503024204 36 301 1.0 3.0 0.00 0.09 0.00 86 1019.8
20260503023703 36 219 1.0 2.0 0.00 0.09 0.00 85 1019.8
20260503023204 36 280 2.0 3.0 0.00 0.10 0.00 86 1019.8
20260503022704 35 245 1.0 2.0 0.00 0.10 0.00 87 1019.6
20260503022203 35 237 1.0 2.0 0.00 0.10 0.00 88 1019.8
20260503021703 35 235 1.0 2.0 0.00 0.10 0.00 87 1019.6
20260503020703 36 221 1.0 3.0 0.00 0.11 0.00 82 1019.6
20260503020203 36 227 1.0 2.0 0.00 0.12 0.00 83 1019.6
20260503015704 36 240 1.0 2.0 0.00 0.12 0.00 83 1019.8
20260503015204 37 280 1.0 2.0 0.00 0.12 0.00 81 1019.6
20260503014704 37 244 0.0 2.0 0.00 0.12 0.00 81 1019.6
20260503013704 37 247 1.0 2.0 0.00 0.12 0.00 78 1019.6
20260503013203 38 272 1.0 2.0 0.00 0.12 0.00 78 1019.6
20260503012703 38 235 1.0 2.0 0.00 0.12 0.00 76 1019.5
20260503012203 39 280 1.0 2.0 0.00 0.13 0.00 74 1019.3
20260503011704 39 292 1.0 2.0 0.00 0.13 0.00 73 1019.1
20260503011204 39 304 2.0 2.0 0.00 0.13 0.00 71 1019.3
20260503010203 40 346 3.0 7.0 0.00 0.14 0.00 69 1018.9
20260503005704 40 339 2.0 3.0 0.00 0.14 0.00 69 1019.1
20260503005203 40 322 2.0 3.0 0.00 0.14 0.00 69 1018.9
20260503004703 40 329 2.0 3.0 0.00 0.14 0.00 70 1018.9
20260503004203 41 331 2.0 3.0 0.00 0.14 0.00 68 1018.9
20260503003703 41 332 2.0 5.0 0.00 0.14 0.00 67 1018.9
20260503003204 41 326 2.0 6.0 0.00 0.14 0.00 68 1018.9
20260503002703 41 312 2.0 3.0 0.00 0.14 0.00 67 1018.6
20260503002203 42 323 2.0 3.0 0.00 0.14 0.00 66 1018.7
20260503001703 42 325 2.0 5.0 0.00 0.14 0.00 64 1018.5
20260503001203 42 317 2.0 5.0 0.00 0.14 0.00 62 1018.6
20260503000703 42 359 2.0 6.0 0.00 0.14 0.00 63 1018.6
20260503000204 43 307 2.0 6.0 0.00 0.14 0.00 61 1018.3
20260502235204 44 332 2.0 7.0 0.00 0.14 0.00 60 1018.3
20260502234704 44 296 3.0 7.0 0.00 0.14 0.00 58 1018.3
20260502234204 44 335 3.0 6.0 0.00 0.14 0.00 59 1018.3
20260502233704 45 328 5.0 12.0 0.00 0.14 0.00 57 1017.9
20260502233204 45 351 3.0 10.0 0.00 0.14 0.00 57 1018.1
20260502232704 45 325 5.0 14.0 0.00 0.14 0.00 56 1018.1
20260502232203 45 351 4.0 8.0 0.00 0.14 0.00 56 1018.1
20260502231704 45 298 5.0 9.0 0.00 0.14 0.00 54 1017.9
20260502231204 46 311 3.0 8.0 0.00 0.14 0.00 53 1017.9
20260502230704 46 293 5.0 13.0 0.00 0.14 0.00 51 1018.1
20260502230204 46 301 8.0 14.0 0.00 0.14 0.00 50 1017.9
20260502225703 47 321 8.0 14.0 0.00 0.14 0.00 51 1017.7
20260502225203 47 351 4.0 12.0 0.00 0.14 0.00 50 1017.9
20260502224703 47 320 3.0 10.0 0.00 0.14 0.00 50 1017.8
20260502223704 47 290 5.0 13.0 0.00 0.14 0.00 50 1017.9
20260502223203 48 347 2.0 13.0 0.00 0.14 0.00 49 1017.6
20260502222203 47 294 6.0 14.0 0.00 0.14 0.00 50 1017.7
20260502221704 48 244 5.0 13.0 0.00 0.14 0.00 47 1017.6
20260502221204 48 331 6.0 16.0 0.00 0.14 0.00 48 1017.6
20260502220703 48 293 7.0 16.0 0.00 0.14 0.00 49 1017.7
20260502220203 46 301 4.0 14.0 0.00 0.14 0.00 51 1017.6
20260502215704 46 298 4.0 14.0 0.00 0.14 0.00 52 1017.9
20260502215203 46 312 3.0 13.0 0.00 0.14 0.00 52 1017.9
20260502214704 46 325 7.0 13.0 0.00 0.14 0.00 52 1017.6
20260502214203 46 311 7.0 12.0 0.00 0.14 0.00 50 1017.8
20260502213704 46 300 3.0 13.0 0.00 0.14 0.00 53 1017.6
20260502213204 47 305 5.0 10.0 0.00 0.14 0.00 52 1017.8
20260502212703 46 311 5.0 10.0 0.00 0.14 0.00 54 1017.7
20260502212203 47 322 5.0 9.0 0.00 0.14 0.00 52 1017.9
20260502211203 46 311 5.0 9.0 0.00 0.14 0.00 56 1017.9
20260502210703 45 272 5.0 13.0 0.00 0.14 0.00 56 1018.1
20260502210204 45 292 5.0 9.0 0.00 0.14 0.00 56 1017.9
20260502205203 45 288 5.0 13.0 0.00 0.14 0.00 57 1018.3
20260502204203 46 329 6.0 13.0 0.00 0.14 0.00 58 1017.9
20260502203704 45 343 7.0 14.0 0.00 0.14 0.00 58 1018.1
20260502202703 45 344 6.0 15.0 0.00 0.14 0.00 59 1018.3
20260502202203 45 308 3.0 12.0 0.00 0.14 0.00 58 1017.9
20260502201703 45 285 4.0 10.0 0.00 0.14 0.00 58 1017.9
20260502201203 46 309 5.0 10.0 0.00 0.14 0.00 58 1018.1
20260502200703 46 317 3.0 7.0 0.00 0.14 0.00 57 1018.1
20260502200204 46 304 6.0 13.0 0.00 0.14 0.00 58 1018.1
20260502195704 46 319 4.0 10.0 0.00 0.14 0.00 58 1018.1
20260502195203 45 9 6.0 10.0 0.00 0.14 0.00 58 1018.1
20260502194704 45 338 4.0 12.0 0.00 0.14 0.00 57 1018.3
20260502193703 46 359 5.0 10.0 0.00 0.14 0.00 55 1018.3
20260502192703 46 315 5.0 13.0 0.00 0.14 0.00 55 1018.3
20260502192203 46 339 6.0 12.0 0.00 0.14 0.00 55 1018.3
20260502191703 46 338 3.0 7.0 0.00 0.14 0.00 56 1018.3
20260502191203 46 279 3.0 8.0 0.00 0.14 0.00 54 1018.5
20260502190704 46 281 5.0 13.0 0.00 0.14 0.00 52 1018.3
20260502190203 46 230 5.0 13.0 0.00 0.14 0.00 53 1018.5
20260502185203 46 300 7.0 16.0 0.00 0.14 0.00 55 1018.4
20260502184703 46 294 5.0 10.0 0.00 0.14 0.00 55 1018.6
20260502184203 46 316 2.0 9.0 0.00 0.14 0.00 56 1018.6
20260502183204 46 320 4.0 9.0 0.00 0.14 0.00 55 1018.3
20260502182703 46 322 2.0 7.0 0.00 0.14 0.00 56 1018.5
20260502181703 46 265 6.0 13.0 0.00 0.14 0.00 51 1018.3
20260502181204 46 254 5.0 10.0 0.00 0.14 0.00 52 1018.3
20260502180704 46 263 6.0 14.0 0.00 0.14 0.00 52 1018.3
20260502180204 46 310 6.0 10.0 0.00 0.14 0.00 55 1018.3
20260502170204 45 324 6.0 13.0 0.00 0.14 0.00 59 1018.3
20260502164204 45 359 3.0 9.0 0.00 0.14 0.00 60 1018.6
20260502163703 44 354 5.0 12.0 0.00 0.14 0.00 61 1018.7
20260502163204 45 27 4.0 9.0 0.00 0.14 0.00 62 1018.9
20260502162703 44 300 3.0 9.0 0.00 0.14 0.00 62 1018.6
20260502162204 44 301 6.0 9.0 0.00 0.14 0.00 64 1018.6
20260502161203 43 322 6.0 12.0 0.00 0.14 0.00 67 1018.9
20260502160703 43 344 7.0 14.0 0.00 0.14 0.00 66 1018.9
20260502160204 45 333 6.0 12.0 0.00 0.14 0.00 63 1018.8
20260502151704 43 321 6.0 13.0 0.00 0.14 0.00 66 1019.3
20260502151203 44 338 8.0 14.0 0.00 0.14 0.00 66 1019.1
20260502150704 44 336 4.0 13.0 0.00 0.14 0.00 70 1019.0
20260502150203 42 354 6.0 21.0 0.00 0.14 0.00 70 1019.1
20260502130703 40 341 7.0 13.0 0.00 0.14 0.00 86 1019.6
20260502130203 40 356 5.0 13.0 0.00 0.14 0.00 85 1019.4
20260502123703 39 339 5.0 13.0 0.00 0.14 0.00 88 1019.5
20260502123203 39 335 6.0 13.0 0.00 0.14 0.00 90 1019.4
20260502122703 40 338 5.0 13.0 0.00 0.14 0.00 90 1019.4
20260502122203 40 349 5.0 14.0 0.00 0.14 0.00 90 1019.3
20260502121703 40 307 5.0 13.0 0.00 0.14 0.00 90 1019.3
20260502121204 40 352 8.0 13.0 0.00 0.14 0.00 88 1019.3
20260502120703 40 332 7.0 15.0 0.00 0.14 0.00 89 1019.3
20260502120204 41 312 5.0 10.0 0.00 0.14 0.00 91 1019.1
20260502115704 40 330 6.0 9.0 0.00 0.14 0.00 93 1019.3
20260502115203 41 257 3.0 8.0 0.00 0.14 0.00 95 1019.3
20260502114703 41 322 5.0 9.0 0.00 0.14 0.00 95 1019.1
20260502114203 41 288 5.0 10.0 0.00 0.14 0.00 94 1018.9
20260502113203 41 265 3.0 8.0 0.00 0.14 0.00 96 1018.9
20260502112203 40 235 3.0 6.0 0.00 0.14 0.00 97 1018.9
20260502111703 40 286 5.0 10.0 0.00 0.14 0.00 98 1018.7
20260502111203 40 258 3.0 6.0 0.00 0.14 0.00 98 1018.9
20260502110703 40 305 4.0 8.0 0.00 0.14 0.00 99 1018.7
20260502110203 39 298 3.0 7.0 0.00 0.14 0.00 99 1018.9
20260502105703 40 264 5.0 9.0 0.00 0.14 0.14 99 1018.8
20260502104703 39 287 4.0 8.0 0.00 0.14 0.14 99 1018.8
20260502104204 39 249 3.0 6.0 0.00 0.14 0.14 99 1018.6
20260502103704 39 294 3.0 6.0 0.00 0.14 0.14 99 1018.7
20260502103204 39 237 2.0 3.0 0.00 0.14 0.14 99 1018.9
20260502102704 39 223 2.0 3.0 0.00 0.14 0.14 99 1018.7
20260502102203 39 8 1.0 3.0 0.00 0.14 0.14 99 1018.9
20260502101203 39 235 0.0 1.0 0.00 0.14 0.14 99 1018.6
20260502100203 38 239 1.0 2.0 0.00 0.14 0.14 99 1018.4
20260502091203 39 314 0.0 2.0 0.00 0.14 0.14 99 1018.3
20260502090703 39 313 1.0 2.0 0.00 0.14 0.14 99 1018.3
20260502090203 39 274 1.0 2.0 0.00 0.14 0.14 99 1017.9
20260502071203 40 207 3.0 6.0 0.00 0.14 0.14 99 1017.9
20260502070203 39 217 1.0 2.0 0.00 0.14 0.14 99 1017.4
20260502065703 39 257 1.0 1.0 0.00 0.14 0.14 99 1017.4
20260502064704 39 302 1.0 2.0 0.00 0.14 0.14 99 1017.2
20260502064204 39 346 1.0 3.0 0.00 0.14 0.14 99 1017.4
20260502063704 39 334 2.0 3.0 0.00 0.14 0.14 99 1017.6
20260502063203 39 348 2.0 2.0 0.00 0.14 0.14 99 1017.6
20260502062704 39 296 2.0 3.0 0.00 0.14 0.14 99 1017.8
20260502062204 39 335 1.0 2.0 0.00 0.14 0.14 99 1017.9
20260502061704 39 279 1.0 2.0 0.00 0.14 0.14 99 1017.8
20260502061203 40 316 1.0 3.0 0.00 0.14 0.14 99 1017.9
20260502060703 40 292 1.0 3.0 0.00 0.14 0.14 99 1018.1
20260502060203 40 237 1.0 2.0 0.00 0.14 0.14 99 1018.3
20260502055703 40 269 1.0 3.0 0.01 0.14 0.14 99 1017.9
20260502055203 40 328 2.0 5.0 0.01 0.14 0.14 99 1017.9
20260502054703 40 335 2.0 3.0 0.01 0.14 0.14 99 1018.1
20260502054204 40 254 1.0 2.0 0.01 0.14 0.14 99 1018.1
20260502053704 40 305 2.0 5.0 0.01 0.14 0.14 99 1018.3
20260502052704 40 220 0.0 3.0 0.01 0.14 0.14 99 1018.1
20260502052203 40 290 1.0 2.0 0.02 0.14 0.14 99 1018.3
20260502051703 40 225 1.0 2.0 0.02 0.14 0.14 99 1018.3
20260502050203 40 239 1.0 3.0 0.03 0.14 0.14 99 1018.3
20260502045203 40 294 1.0 2.0 0.03 0.13 0.13 99 1018.3
20260502044703 40 278 3.0 3.0 0.04 0.13 0.13 99 1018.1
20260502044203 40 314 2.0 3.0 0.04 0.13 0.13 99 1018.3
20260502043703 40 273 2.0 5.0 0.04 0.13 0.13 99 1018.3
20260502043203 40 284 2.0 3.0 0.05 0.13 0.13 99 1017.9
20260502042703 40 325 3.0 3.0 0.05 0.13 0.13 99 1017.9
20260502042203 40 276 1.0 3.0 0.04 0.12 0.12 99 1018.3
20260502041703 40 322 2.0 5.0 0.04 0.12 0.12 99 1017.9
20260502040203 40 299 3.0 5.0 0.04 0.11 0.11 99 1017.9
20260502035702 41 317 2.0 3.0 0.03 0.10 0.10 99 1017.9
20260502035203 40 336 2.0 3.0 0.04 0.10 0.10 99 1017.9
20260502034703 40 325 2.0 6.0 0.03 0.09 0.09 99 1017.9
20260502034203 40 308 3.0 5.0 0.03 0.09 0.09 99 1017.9